Miscellaneous Local Product
Issued by NWS North Platte, NE

Home | Current Version | Previous Version | Graphics & Text | Print | Product List | Glossary On
Versions: 1 2 3 4 5 6 7 8 9 10 11 12 13 14 15 16 17 18 19 20 21 22 23 24 25 26 27 28 29 30 31 32 33 34 35 36 37 38 39 40 41 42 43 44 45 46 47 48 49 50
000
AXUS43 KLBF 241110
MISLBF


WESTERN AND NORTH CENTRAL NEBRASKA HOURLY WEATHER ROUNDUP
NATIONAL WEATHER SERVICE NORTH PLATTE NE
600 AM CDT SAT JUN 24 2017

NOTE: "FAIR" INDICATES FEW OR NO CLOUDS BELOW 12,000 FEET WITH NO
SIGNIFICANT WEATHER AND/OR OBSTRUCTIONS TO VISIBILITY.

NOTE: STATIONS NOT REPORTING VARIABLES SUCH AS SKY/WEATHER OR
PRESSURE ARE PROVIDED BY RAWS AND APRS NETWORKS AND ARE NOT UNDER
NATIONAL WEATHER SERVICE QUALITY CONTROL.

...OBSERVATIONS IN AND NEAR THE EASTERN PANHANDLE OF NEBRASKA...

CITY           SKY/WX    TMP DP  RH WIND       PRES   REMARKS
PINE RIDGE     CLEAR     36  33  89 CALM      30.26R
GORDON         FAIR      41  35  77 W5        30.25S
CHADRON        CLOUDY    43  37  79 SW5       30.26S
ALLIANCE       CLOUDY    48  43  82 W5        30.27S
SIDNEY         CLOUDY    54  39  57 E3        30.30S
CRESCENT LAKE    N/A     53  42  66 CALM        N/A
$$

...OBSERVATIONS IN NORTHERN NEBRASKA AND FAR SOUTHERN SOUTH DAKOTA...

CITY           SKY/WX    TMP DP  RH WIND       PRES   REMARKS
WINNER         FAIR      49  35  58 SW9       30.18S
VALENTINE      CLEAR     41  31  67 SW7       30.22R
THEDFORD       CLOUDY    48  38  67 W3        30.25R
AINSWORTH      CLEAR     43  38  83 W5        30.22R
O`NEILL        CLEAR     44  37  76 W6        30.19S
ORD            PTCLDY    43  39  86 NW3       30.20S
BROKEN BOW     CLOUDY    48  43  82 S3        30.22S
VALENTINE NWR    N/A     43  36  77 CALM        N/A
HALSEY           N/A     46  34  63 CALM        N/A
BUTTE            N/A     45  36  71 SW3         N/A
CHAMBERS         N/A     42  33  69 CALM        N/A
EWING            N/A     42  38  87 CALM        N/A
$$

...OBSERVATIONS IN SOUTHWEST NEBRASKA AND FAR NORTHEAST COLORADO...

CITY           SKY/WX    TMP DP  RH WIND       PRES   REMARKS
WRAY           FAIR      46  41  81 N7        30.26R
IMPERIAL       CLOUDY    54  47  77 CALM      30.26S
OGALLALA       CLOUDY    55  44  64 CALM      30.27R
NORTH PLATTE   CLOUDY    51  41  68 NW5       30.25S
MCCOOK         CLEAR     47  44  90 SW5       30.24S
LEXINGTON      CLOUDY    51  46  84 NW5       30.24S
STAPLETON        N/A     49  38  67 CALM        N/A
GOTHENBURG       N/A     51  40  67 NW3         N/A
CALLAWAY         N/A     50  45  81 CALM        N/A
$$

...OBSERVATIONS IN CENTRAL LINCOLN COUNTY AREA...

CITY           SKY/WX    TMP DP  RH WIND       PRES   REMARKS
N.P. AIRPORT   CLOUDY    51  41  68 NW5       30.25S
N.P. DOWNTOWN    N/A     52  43  72 CALM        N/A
N.P. SOUTHEAST   N/A     53  43  68 CALM        N/A
N.P. HILLCREST   N/A     51  40  67 CALM        N/A
$$

...SOME OBSERVATIONS FROM AROUND THE REGION...

CITY           SKY/WX    TMP DP  RH WIND       PRES   REMARKS
DENVER         CLOUDY    52  48  86 E6        30.28F
LIMON          CLOUDY    55  46  71 CALM      30.30F
ASPEN          CLOUDY    44  29  55 S7        30.33R
LARAMIE        CLOUDY    45  32  60 SE3       30.35S
CASPER         CLEAR     39  32  76 W5        30.32S
CHEYENNE       CLOUDY    51  30  44 E6        30.33F
SCOTTSBLUFF    CLOUDY    53  42  66 SW3       30.29R
GRAND ISLAND   CLEAR     47  43  86 W6        30.22R
OMAHA          CLEAR     54  46  74 CALM      30.15R
SIOUX FALLS    CLEAR     45  41  86 CALM      30.11S
PIERRE         PTCLDY    44  36  73 NW7       30.14R
RAPID CITY     CLEAR     46  29  51 NW8       30.24S
BISMARCK       CLOUDY    50  41  71 NW10      30.13R
KANSAS CITY    CLEAR     58  54  86 NW7       30.13R
HILL CITY      CLEAR     50  47  89 N5        30.22R
WICHITA        CLOUDY    64  53  67 NE6       30.15R
DODGE CITY     CLOUDY    61  56  83 N5        30.21R
OKLAHOMA CITY  CLOUDY    71  51  49 E15       30.13R
DALLAS         CLOUDY    74  70  87 E6        29.99R
AMARILLO       CLOUDY    57  55  93 E12       30.24S
$$




USA.gov is the U.S. government's official web portal to all federal, state and local government web resources and services.